www.pogodaiklimat.ru

Погода и климат >> Архив погоды >> Китай >> Тайвань >> Ланьюй


ПОГОДА в Ланьюе

  • Прогноз погоды в Ланьюе
  • Монитор погоды в Ланьюе

АРХИВ ПОГОДЫ в Ланьюе

Время (UTC), дата Ветер
(напр.,м/с)
 
Видим.   Явления Облачность Т
(С)
Тd
(С)
f
(%)
Тe
(С)
Тes
(С)
Комфортность P
(гПа)
Po
(гПа)
Тmin
(С)
Tmax
(С)
R
(мм)
R24
(мм)
S
(см)
00 14.04 С 2 20 км 9/9 600 м
[Sc]
+23.2 +23.2 100 +33 +33 очень
душно
1015.1 977.7
03 14.04 СВ 5 20 км 6/6 600 м
[Sc diur, vesp]
+25.0 +22.8 88 +33 +37 очень
душно
1015.3 978.2
06 14.04 СВ 4 20 км 9/9 600 м
[Sc diur, vesp]
+24.5 +22.6 89 +32 +33 очень
душно
1013.1 976.0
09 14.04 СВ 5 15 км 8/8 600 м
[Sc diur, vesp]
+23.3 +23.2 99 +33 +33 очень
душно
1013.1 975.8
12 14.04 СВ 5 15 км 9/9 300 м
[Sc diur, vesp]
+23.4 +22.8 96 +33 +33 очень
душно
1014.1 976.8
18 14.04 С 7 н/о н/о +21.8 +21.8 100 +28 +28 душно 1013.2 975.7
21 14.04 С 7 15 км 10/10 300 м
[Sc]
+22.1 +22.1 100 +29 +29 очень
душно
1013.1 975.7
00 15.04 СВ 13 10 км {дождь} 10/10 300 м
[St]
+20.4 +20.3 99 +24 +24 комфорт 1015.1 977.4 6
03 15.04 С 7 12 км 10/10 600 м
[Sc]
+21.0 +19.2 89 +25 +25 комфорт 1016.4 978.7
06 15.04 СВ 9 12 км 10/10 600 м
[Sc]
+21.1 +18.9 87 +25 +25 комфорт 1014.6 977.0
09 15.04 С 7 15 км 9/9 600 м
[Sc diur, vesp]
+21.0 +18.9 88 +25 +25 комфорт 1013.9 976.3
12 15.04 С 6 10 км 10/10 600 м
[Sc]
+21.0 +19.4 91 +26 +26 душно 1015.7 978.0
18 15.04 СВ 10 н/о н/о +20.5 +20.5 100 +24 +24 комфорт 1013.7 976.1
21 15.04 СВ 9 10 км 10/10 300 м
[Sc]
+20.8 +20.8 100 +25 +25 комфорт 1013.0 975.4
00 16.04 СВ 5 15 км в посл. час дождь 10/10 600 м
[Sc]
+21.7 +21.6 99 +28 +28 душно 1014.2 976.7 0.5
03 16.04 СЗ 1 15 км {дождь} 10/10 600 м
[Sc]
+24.1 +21.9 88 +31 +31 очень
душно
1013.7 976.5 0.5
06 16.04 З 5 15 км {дождь} 8/3 600 м
[Cu hum Ac trans]
+24.8 +21.3 81 +31 +35 очень
душно
1010.1 973.1 0.5
09 16.04 З 10 20 км 4/4 600 м
[Cu hum]
+23.6 +22.4 93 +31 +31 очень
душно
1009.2 972.1
12 16.04 З 13 20 км 6/6 300 м
[Sc diur, vesp]
+23.4 +22.8 96 +33 +33 очень
душно
1009.8 972.7 0.5
18 16.04 СВ 5 н/о н/о +23.2 +23.1 99 +32 +32 очень
душно
1009.9 972.7
21 16.04 СВ 3 15 км 8/8 300 м
[Sc diur, vesp]
+23.1 +23.1 100 +32 +32 очень
душно
1010.7 973.5
00 17.04 СВ 3 15 км 10/10 300 м
[Sc]
+22.7 +22.7 100 +31 +31 очень
душно
1012.8 975.5
03 17.04 СВ 8 5000 м в посл. час дождь 10/10 300 м
[St]
+21.8 +21.8 100 +28 +28 душно 1013.7 976.2 2
06 17.04 СВ 4 15 км {дождь} 9/9 300 м
[Sc diur, vesp]
+22.0 +21.5 97 +29 +30 очень
душно
1011.9 974.5 2
09 17.04 СВ 7 10 км слаб. дождь 10/10 300 м
[Frnb]
+21.6 +21.6 100 +28 +28 очень
душно
1011.8 974.4 5
12 17.04 СВ 6 10 км слаб. дождь 10/10 300 м
[Frnb]
+20.9 +20.9 100 +26 +26 душно 1013.7 976.1 8
18 17.04 СВ 8 н/о н/о +21.7 +20.4 92 +27 +27 душно 1012.3 974.9
21 17.04 СВ 8 15 км 10/10 300 м
[Sc]
+22.0 +21.2 95 +28 +28 душно 1012.2 974.8
00 18.04 СВ 5 20 км 6/6 600 м
[Sc diur, vesp]
+22.7 +21.0 90 +30 +31 очень
душно
1014.2 976.8 0.5
03 18.04 В 6 20 км 6/6 600 м
[Cu hum]
+23.7 +21.8 89 +30 +34 очень
душно
1014.2 976.9
06 18.04 В 5 15 км 9/9 300 м
[Sc diur, vesp]
+23.6 +22.6 94 +31 +32 очень
душно
1012.6 975.4
09 18.04 ЮВ 6 15 км 9/9 300 м
[Sc diur, vesp]
+23.4 +22.7 96 +33 +33 очень
душно
1011.8 974.6
12 18.04 В 4 15 км 9/9 300 м
[Sc diur, vesp]
+23.3 +23.3 100 +33 +33 очень
душно
1012.9 975.6
18 18.04 ЮВ 4 н/о н/о +23.5 +23.5 100 +32 +32 очень
душно
1011.5 974.3
21 18.04 Ю 4 15 км 9/9 300 м
[Sc diur, vesp]
+23.6 +23.6 100 +32 +32 очень
душно
1011.2 974.0
00 19.04 Ю 5 15 км 10/10 300 м
[Sc]
+24.3 +24.3 100 +34 +34 очень
душно
1012.2 975.1
03 19.04 Ю 7 10 км 10/10 300 м
[St]
+25.3 +24.5 95 +35 +35 очень
душно
1011.3 974.3
06 19.04 ЮЗ 5 10 км 10/10 300 м
[St]
+25.8 +25.2 96 +37 +37 очень
душно
1010.2 973.3
09 19.04 2000 м сильн. гроза, ливневой дождь н/о +22.0 +22.0 100 +29 +29 очень
душно
1009.3 972.0 43
12 19.04 З 6 15 км {гроза, ливн. осадки} 9/9 600 м
[Sc diur, vesp]
+22.0 +22.0 100 +29 +29 очень
душно
1010.6 973.3 49
18 19.04 З 9 н/о н/о +21.6 +21.6 100 +28 +28 очень
душно
1009.6 972.2
21 19.04 З 10 20 км {дождь} 4/3 600 м
[Sc diur, vesp Ac lent]
+23.0 +21.9 94 +31 +31 очень
душно
1008.7 971.6 1
00 20.04 ЮЗ 8 30 км {дождь} 4/1 600 м
[Cu hum Ac trans]
+25.1 +21.1 78 +32 +32 очень
душно
1010.1 973.2 1
03 20.04 З 8 30 км 3/3 600 м
[Cu hum]
+26.8 +21.1 71 +34 +36 очень
душно
1009.9 973.2
06 20.04 З 5 30 км 3/3 600 м
[Cu hum]
+27.5 +22.7 75 +36 +42 очень
душно
1008.4 971.8
09 20.04 В 1 30 км 4/4 600 м
[Cu hum]
+25.7 +22.8 84 +34 +35 очень
душно
1008.6 971.8
12 20.04 СВ 5 20 км 6/6 300 м
[Sc diur, vesp]
+24.2 +24.2 100 +33 +33 очень
душно
1009.9 972.9
18 20.04 З 5 н/о н/о +23.6 +23.6 100 +32 +32 очень
душно
1009.2 972.1

 

Местоположение метеостанции Ланьюй (Тайвань, Китай): широта 22.03 долгота 121.55 высота над уровнем моря 325 м.

В архиве по умолчанию представлена погода в Ланьюе за последнюю неделю. Архивные данные за месяц целиком и за предыдущие месяцы, начиная с января 2011 года, Вы можете получить, выбрав интересующий диапазон дат из раскрывающегося списка и нажав кнопку "Ввод!".


*Определитесь, кто Вы:
робот инопланетянин человек

Внимание! Время в таблицах - всемирное. Для получения местного времени необходимо прибавить поправку, которая равна 8 ч.

Смотрите также архив погоды в соседних городах и на ближайших метеорологических станциях:

Погода в Хенгчуне (Тайвань, Китай) (83 км)
Погода в Тайдонге (Тайвань, Китай) (90 км)
Погода в Итбаяте (Филиппины) (140 км)
Погода в Тайнане (Тайвань, Китай) (175 км)
Погода на Баско Радар (Филиппины) (183 км)
Погода в Тайчжуне (Тайвань, Китай) (252 км)
Погода в Калаяне (Филиппины) (307 км)
Погода на Йонагуни (Япония) (310 км)
Погода в Тайбэе (Тайвань, Китай) (334 км)
Погода на Ириомоте (Япония) (350 км)

Пояснения к столбцам:

Ветер - указаны скорость ветра в м/с - средняя за 10 мин, порывы в срок и между сроками (в фигурных скобках) и направление, откуда дует ветер: С - северный, СВ - северо-восточный, В - восточный, ЮВ - юго-восточный, Ю - южный, ЮЗ - юго-западный, З - западный, СЗ - северо-западный.
Видимость - горизонтальная дальность видимости в метрах или километрах. При видимости от 1 до 10 км при отсутствии осадков обычно наблюдается дымка, при ухудшении видимости до 1 км и менее - туман. В сухую погоду видимость может ухудшаться дымом, пылью или мглою.
Явления - указаны атмосферные явления, наблюдавшиеся в срок или в последний час перед сроком; фигурными скобками обозначены явления, наблюдавшиеся между сроками (за 1-3 часа до срока); квадратными скобками обозначены град или гололедные отложения с указанием их диаметра в мм.
Облачность - указаны через наклонную черту общая и нижняя облачность в баллах и высота нижней границы облаков в метрах; квадратными скобками обозначены формы облаков: Ci - перистые, Cs - перисто-слоистые, Cc - перисто-кучевые, Ac - высококучевые, As - высокослоистые, Sc - слоисто-кучевые, Ns - слоисто-дождевые, Cu - кучевые, Cb - кучево-дождевые. Подробнее классификацию облаков см. в Атласе облаков (PDF).
T - Температура воздуха - температура, измеренная на высоте 2 м над землей.
Td - Температура точки росы - температура, при понижении до которой содержащийся в воздухе водяной пар достигнет насыщения.
f - Относительная влажность воздуха - влажноcть воздуха, измеренная на высоте 2 м над землей.
Te - Эффективная температура - температура, которую ощущает одетый по сезону человек в тени. Характеристика душности погоды. При расчете учитывается влияние влажности воздуха и скорости ветра на теплоощущения человека.
Tes - Эффективная температура на солнце - температура, которую ощущает человек, с поправкой на солнечный нагрев. Характеристика знойности погоды. Зависит от высоты солнца над горизонтом, облачности и скорости ветра. Ночью, в пасмурную погоду, а также при ветре 12 м/с и более поправка равна нулю.
P - Атмосферное давление - приведенное к уровню моря атмосферное давление.
Po - Атмосферное давление - измеренное на уровне метеостанции атмосферное давление.
Tmin - Минимальная температура - минимум температуры воздуха на высоте 2 м над землей.
Tmax - Максимальная температура - максимум температуры воздуха на высоте 2 м над землей.
R - Количество осадков - Количество выпавших осадков за период времени, мм. При наведении курсора мыши на число - период времени, за который выпало указанное количество осадков.
R24 - Количество осадков - Количество выпавших осадков за 24 часа, мм.
S - Снежный покров - Высота снежного покрова, см. При наведении курсора мыши на число - состояние снежного покрова и степень покрытия местности в баллах.